Jacksonville Craig, FL

9:24 AM EDT on October 17, 2017 (GMT -0400)
Craig Municipal

Weather History for KCRG - October, 2013

Change the Weather History Date:

Wednesday, October 9, 2013

  Actual Average Record
Temperature  
Mean Temperature 68 °F -  
Max Temperature 73 °F 78 °F 89 °F (2017)
Min Temperature 62 °F 64 °F 50 °F (2000)
Cooling Degree Days 2    
Growing Degree Days 18 (Base 50)    
Moisture  
Dew Point 61 °F    
Average Humidity 85    
Maximum Humidity 94    
Minimum Humidity 65    
Precipitation  
Precipitation 0.00 in - - ()
Sea Level Pressure  
Sea Level Pressure 30.06 in    
Wind  
Wind Speed 8 mph (North)    
Max Wind Speed 12 mph    
Max Gust Speed -    
Visibility 7 miles    
Events      
Averages and records for this station are not official NWS values.
T = Trace of Precipitation, MM = Missing Value Source: NWS Daily Summary

Daily Weather History Graph

Daily Weather History Graph

Search for Another Location

Airport or City:

Trip Planner

Search our weather history database for the weather conditions in past years. The results will help you decide how hot, cold, wet, or windy it might be!

Date:

Astronomy

Oct. 09, 2013 Rise Set
Actual Time 7:24 AM EDT 7:01 PM EDT
Civil Twilight 7:00 AM EDT 7:25 PM EDT
Nautical Twilight 6:32 AM EDT 7:53 PM EDT
Astronomical Twilight 6:04 AM EDT 8:21 PM EDT
Moon 12:02 PM EDT (10/9) 10:50 PM EDT (10/9)
Length of Visible Light 12h 25m
Length of Day
11h 36m
Waxing Crescent, 25% of the Moon is Illuminated
Oct 9
Waxing Crescent
Oct 11
First Quarter
Oct 18
Full
Oct 26
Last Quarter
Nov 3
New

Hourly Weather History & Observations

Time (EDT) Temp. Dew Point Humidity Pressure Visibility Wind Dir Wind Speed Gust Speed Precip Events Conditions
12:53 AM 66.9 °F 63.0 °F 87% 30.01 in 4.0 mi North 10.4 mph - N/A   Overcast
1:53 AM 66.0 °F 63.0 °F 90% 30.02 in 5.0 mi North 5.8 mph - N/A   Overcast
2:53 AM 64.9 °F 62.1 °F 90% 30.01 in 4.0 mi North 9.2 mph - N/A   Overcast
3:53 AM 64.0 °F 61.0 °F 90% 30.02 in 3.0 mi North 11.5 mph - N/A   Overcast
4:53 AM 63.0 °F 60.1 °F 90% 30.02 in 4.0 mi NNW 11.5 mph - 0.00 in   Overcast
5:53 AM 63.0 °F 60.1 °F 90% 30.03 in 4.0 mi NNW 10.4 mph - N/A   Overcast
6:53 AM 62.1 °F 59.0 °F 90% 30.04 in 4.0 mi North 9.2 mph - N/A   Overcast
7:53 AM 63.0 °F 60.1 °F 90% 30.06 in 4.0 mi NNW 9.2 mph - N/A   Overcast
8:14 AM 62.6 °F 60.8 °F 94% 30.06 in 2.5 mi North 9.2 mph - N/A   Overcast
8:33 AM 62.6 °F 60.8 °F 94% 30.07 in 3.0 mi North 10.4 mph - N/A   Overcast
8:53 AM 63.0 °F 60.1 °F 90% 30.08 in 3.0 mi North 9.2 mph - N/A   Overcast
9:53 AM 63.0 °F 60.1 °F 90% 30.09 in 4.0 mi North 10.4 mph - N/A   Overcast
10:53 AM 62.1 °F 59.0 °F 90% 30.10 in 5.0 mi North 10.4 mph - N/A   Overcast
11:53 AM 63.0 °F 59.0 °F 87% 30.11 in 7.0 mi North 10.4 mph - N/A   Overcast
12:53 PM 64.0 °F 60.1 °F 87% 30.10 in 9.0 mi NNW 8.1 mph - N/A   Overcast
1:53 PM 66.0 °F 60.1 °F 81% 30.08 in 10.0 mi NNW 9.2 mph - N/A   Overcast
2:53 PM 66.9 °F 60.1 °F 79% 30.07 in 10.0 mi NNW 8.1 mph - N/A   Overcast
3:53 PM 69.1 °F 61.0 °F 75% 30.06 in 10.0 mi North 6.9 mph - N/A   Overcast
4:29 PM 73.4 °F 60.8 °F 65% 30.04 in 10.0 mi NNE 8.1 mph - N/A   Scattered Clouds
4:53 PM 73.0 °F 61.0 °F 66% 30.04 in 10.0 mi North 8.1 mph - N/A   Clear
5:53 PM 73.0 °F 62.1 °F 68% 30.04 in 10.0 mi Calm Calm - N/A   Clear
6:53 PM 72.0 °F 62.1 °F 71% 30.04 in 10.0 mi Calm Calm - N/A   Clear
7:53 PM 68.0 °F 63.0 °F 84% 30.05 in 10.0 mi Calm Calm - N/A   Clear
8:53 PM 66.9 °F 62.1 °F 84% 30.05 in 10.0 mi Calm Calm - N/A   Clear
9:53 PM 66.0 °F 63.0 °F 90% 30.07 in 10.0 mi Calm Calm - N/A   Overcast
10:53 PM 66.9 °F 63.0 °F 87% 30.07 in 10.0 mi Calm Calm - N/A   Overcast
11:53 PM 66.0 °F 62.1 °F 87% 30.07 in 10.0 mi Calm Calm - N/A   Scattered Clouds